Weather observations for the past three days for
Tinker Air Force Base
Imperial (Metric)
Date Time (cdt) Wind (mph) Vis. (mi.) Weather Sky Cond. Temperature (ºF) Relative Humidity Wind Chill (°F) Heat Index (°F) Pressure Precipitation (in)
Air Dwpt 6 hour altimeter (in) sea level (mb) 1 hr 3 hr 6 hr
Max. Min.
21 15:55 NE 12 10.00 Partly Cloudy FEW031 SCT180 SCT200 84.4 68 58% 88 29.98 1014.0
21 14:55 N 10 10.00 Mostly Cloudy FEW032 SCT039 SCT120 BKN150 81.3 68 64% 84 30.01 1015.1
21 13:55 NE 10 10.00 Partly Cloudy FEW022 SCT035 SCT160 80.4 69.6 70% 84 30.01 1015.0
21 11:55 Calm 10.00 Mostly Cloudy SCT016 BKN022 77.4 69.1 76% 79 30.03 1015.8
21 10:55 S 5 10.00 Partly Cloudy SCT011 SCT043 SCT180 75.9 69.6 81% 77 30.03 1015.8
21 09:55 S 7 10.00 Overcast FEW008 SCT013 OVC022 73.2 69.1 87% 30.03 1015.9
21 08:55 S 8 10.00 Overcast FEW007 BKN012 OVC022 72.3 69.4 91% 30.01 1015.2
21 07:55 E 5 10.00 Overcast FEW007 OVC021 71.2 69.1 93% 30.02 1015.5
21 06:55 S 7 10.00 Partly Cloudy SCT045 71.1 68.9 77.2 70.9 93% 29.99 1014.4 0.08
21 05:55 SE 7 10.00 Overcast OVC041 71.1 68.9 93% 29.99 1014.4 0.01
21 04:55 NE 6 8.00 Thunderstorm in Vicinity Heavy Rain BKN040 OVC050 72.5 68.7 88% 29.98 1013.9 0.07
21 03:55 S 5 10.00 Thunderstorm BKN050 OVC060 73.2 67.3 82% 29.97 1013.7
21 02:55 SW 10 10.00 Partly Cloudy SCT070 73.8 67.1 80% 29.97 1013.7
21 01:55 S 10 10.00 Partly Cloudy SCT055 SCT095 76.3 68.5 77% 78 29.97 1013.7
21 00:55 S 8 10.00 Partly Cloudy SCT055 SCT080 77.4 67.1 85.6 75.7 71% 79 29.98 1014.1
20 23:55 S 5 10.00 Mostly Cloudy FEW060 BKN080 76.6 68.9 77% 78 29.99 1014.4
20 22:55 SE 5 10.00 A Few Clouds FEW090 77.7 68.4 73% 80 29.99 1014.6
20 21:55 S 7 10.00 Mostly Cloudy BKN110 BKN140 78.4 68.5 72% 81 29.97 1013.9
20 20:55 S 7 10.00 A Few Clouds FEW110 79.7 71.4 76% 83 29.98 1014.2
20 19:55 S 7 10.00 Fair CLR 81.1 71.2 72% 85 29.95 1013.2
20 18:55 SE 9 10.00 Fair CLR 85.3 70.7 87.3 78.4 62% 90 29.95 1013.1
20 17:55 S 10 10.00 Fair CLR 86.4 69.8 58% 91 29.95 1013.1
20 16:55 S 10 10.00 A Few Clouds FEW180 86.4 70.3 59% 91 29.96 1013.4
20 15:55 S 7 10.00 Fair CLR 85.3 71.2 63% 91 29.98 1014.1
20 14:55 S 9 10.00 A Few Clouds FEW095 FEW200 83.5 70 64% 88 30 1014.8
20 13:55 S 10 10.00 A Few Clouds FEW200 81.3 68.9 66% 84 30.01 1015.2
20 12:55 SW 16 10.00 Partly Cloudy FEW120 FEW140 SCT180 78.3 69.3 78.3 68.4 74% 81 30.03 1016.0 0.24
20 11:55 SW 17 10.00 Partly Cloudy FEW075 SCT090 SCT190 77 68.4 75% 79 30.04 1016.2
20 10:55 SW 12 10.00 Partly Cloudy FEW130 FEW160 SCT190 71.1 67.6 89% 30.05 1016.7 0.01
20 09:55 SW 8 10.00 A Few Clouds FEW033 68.7 66.2 92% 30.06 1017.1 0.13 0.23
20 08:55 SW 5 7.00 Light Rain SCT048 69.4 65.3 87% 30.07 1017.3 0.09
20 07:55 N 3 9.00 Light Rain SCT050 SCT080 70 63.9 81% 30.07 1017.3 0.01
20 06:55 S 9 10.00 A Few Clouds FEW210 68.5 61.7 70.3 67.8 79% 30.03 1015.8
20 05:55 S 12 10.00 A Few Clouds FEW090 69.3 61.7 77% 30 1014.7
20 04:55 S 6 10.00 Fair CLR 68 61.5 80% 29.99 1014.4
20 03:55 S 7 10.00 Fair CLR 69.3 60.6 74% 29.99 1014.4
20 02:55 SE 5 10.00 Fair CLR 69.3 58.6 69% 29.99 1014.4
20 01:55 SE 5 10.00 Fair CLR 69.4 56.7 64% 30 1014.8
20 00:55 E 6 10.00 Fair CLR 69.4 55.8 85.8 69.4 62% 29.99 1014.4
19 23:55 E 5 10.00 Fair CLR 72.3 56.1 57% 30 1014.8
19 22:55 SE 5 10.00 Fair CLR 73.6 57.4 57% 30.01 1015.1
19 21:55 Calm 10.00 Fair CLR 76.3 57.4 52% 78 30.02 1015.5
19 20:55 Calm 10.00 Fair CLR 78.1 55.6 46% 79 30 1014.8
19 19:55 E 3 10.00 Fair CLR 82.2 59.4 46% 82 30 1014.9
19 18:55 E 3 10.00 Fair CLR 86 55 88.5 84 35% 84 29.99 1014.5
19 17:55 NE 6 10.00 Fair CLR 88 54.3 32% 86 30 1014.8
19 16:55 N 7 10.00 Fair CLR 87.8 55 33% 86 30.01 1015.1
19 15:55 Calm 10.00 Fair CLR 88.2 52.7 30% 86 30.02 1015.5
19 14:55 E 6 10.00 Fair CLR 86.7 55.8 35% 85 30.05 1016.5
19 13:55 NW 6 10.00 Fair CLR 84.7 57.7 40% 84 30.07 1017.2
19 12:55 SE 7 10.00 Fair CLR 85.1 58.1 85.5 65.5 40% 84 30.08 1017.4
19 11:55 SE 6 10.00 Fair CLR 82.8 57.2 42% 82 30.09 1017.9
19 10:55 SE 6 10.00 Fair CLR 80.4 61.7 53% 82 30.1 1018.2
19 09:55 S 5 10.00 Fair CLR 77.5 62.6 60% 79 30.12 1019.0
19 08:55 SE 5 10.00 Fair CLR 74.3 60.4 62% 30.12 1018.9
19 07:55 E 6 10.00 Fair CLR 69.4 58.5 68% 30.12 1018.9
19 06:55 E 7 10.00 Fair CLR 65.3 57.2 70.3 64.4 75% 30.1 1018.3
19 05:55 E 8 10.00 Fair CLR 64.9 57.2 76% 30.09 1017.9
19 04:55 E 8 10.00 Fair CLR 66.6 56.5 70% 30.08 1017.5
19 03:55 E 8 10.00 Fair CLR 67.6 57 69% 30.08 1017.5
19 02:55 E 7 10.00 Fair CLR 69.4 56.3 63% 30.09 1017.8
19 00:55 E 7 10.00 Fair CLR 69.8 57.6 85.6 69.8 65% 30.11 1018.5
18 23:55 E 8 10.00 Fair CLR 70.5 58.1 65% 30.11 1018.5
18 22:55 E 8 10.00 Fair CLR 72.5 59.2 63% 30.09 1017.8
18 21:55 NE 8 10.00 Fair CLR 73.8 59.9 62% 30.07 1017.2
18 20:55 NE 7 6.00 Fair with Haze CLR 77.4 59.4 54% 79 30.05 1016.5
18 19:55 NE 7 10.00 Fair CLR 82.6 58.5 44% 82 30.04 1016.2
18 18:55 N 12 10.00 Fair CLR 85.8 57.2 88.3 85.3 38% 85 30.04 1016.1
18 17:55 N 10 10.00 Fair CLR 87.3 55.4 34% 86 30.04 1016.1
18 16:55 NE 7 10.00 Fair CLR 88 57.6 36% 87 30.06 1016.7
Date Time (cdt) Wind (mph) Vis. (mi.) Weather Sky Cond. Air Dwpt Max. Min. Relative Humidity Wind Chill (°F) Heat Index (°F) altimeter (in) sea level (mb) 1 hr 3 hr 6 hr
6 hour
Temperature (ºF) Pressure Precipitation (in)